www.pogodaiklimat.ru

Погода и климат >> Архив погоды >> Россия >> Мурманская область >> Мурманск


АРХИВ ПОГОДЫ в Мурманске

Время (UTC), дата Ветер
(напр.,м/с)
 
Видим.   Явления Облачность Т
(С)
Тd
(С)
f
(%)
Тe
(С)
Тes
(С)
Комфортность P
(гПа)
Po
(гПа)
Тmin
(С)
Tmax
(С)
R
(мм)
R24
(мм)
S
(см)
18 9.06 В 4-7
{10}
20 км слаб. ливневой дождь 10/10 300 м
[Cb cap]
+5.8 +4.1 89 +2 +2 прохладно 1012.7 1006.5 +8.7 1
21 9.06 СВ 4-7
{10}
{ливн. осадки} н/о +4.8 +3.6 92 0 0 прохладно 1010.6 1004.4 204
00 10.06 СВ 2 4000 м ливневой дождь 10/10 300 м
[Cb cap]
+3.8 +2.8 93 +1 +1 по сезону 1007.9 1001.7
03 10.06 СВ 3 4000 м ливневой дождь 10/10 100 м
[Cb cap]
+4.3 +3.7 96 0 0 прохладно 1005.7 999.5 +3.8 16
06 10.06 С 3 4000 м слаб. ливневой дождь 10/10 100 м
[Cb cap]
+5.1 +4.5 96 +1 +1 прохладно 1004.8 998.6 +3.8 16
09 10.06 С 4 4000 м слаб. ливневой дождь 10/10 100 м
[Cb cap]
+6.8 +6.4 97 +3 +3 прохладно 1005.0 998.9
12 10.06 С 5 4000 м слаб. ливневой дождь 10/10 100 м
[Cb cap]
+6.3 +5.7 96 +2 +2 холодно 1005.1 998.9
15 10.06 С 6 4000 м слаб. ливневой дождь 10/10 100 м
[Cb cap]
+5.2 +4.5 95 -0 -0 очень
холодно
1005.3 999.1 5
18 10.06 С 7-11
{11}
10 км слаб. ливневой дождь 10/10 300 м
[Cb cap]
+3.7 +3.0 95 -2 -2 очень
холодно
1007.0 1000.8 +7.2 7
21 10.06 С 9-14
{15}
10 км слаб. ливневой дождь 10/10 300 м
[Cb cap]
+2.5 +1.6 94 -5 -5 очень
холодно
1009.4 1003.1
00 11.06 С 8-13
{16}
10 км слаб. ливневой дождь 10/10 300 м
[Cb cap]
+2.1 +1.2 94 -5 -5 очень
холодно
1012.3 1006.0
03 11.06 С 7-11
{12}
10 км слаб. ливневой дождь 10/10 300 м
[Cb cap]
+1.3 +0.7 96 -6 -6 очень
холодно
1015.8 1009.5 +1.2 12
06 11.06 С 5-8
{12}
10 км слаб. ливневой снег 10/10 200 м
[Cb cap]
+1.4 +0.9 96 -5 -5 очень
холодно
1019.3 1012.9 +1.2 12
09 11.06 С 6-10
{14}
20 км слаб. ливневой дождь 10/10 300 м
[Cb cap]
+2.5 +1.0 90 -4 -4 очень
холодно
1022.4 1016.0
12 11.06 С 8-13
{14}
20 км {ливн. осадки} 9/8 300 м
[Cb cap Ac trans]
+3.5 -0.1 77 -3 -3 очень
холодно
1024.8 1018.5
15 11.06 С 10-14
{14}
20 км слаб. ливневой дождь 8/5 300 м
[Cb cap Ac trans Ci fib]
+4.0 +0.3 77 -3 -3 очень
холодно
1025.8 1019.5 4
18 11.06 С 5-7
{12}
20 км слаб. ливневой дождь 8/6 300 м
[Cb cap Ac trans Ci fib]
+3.5 -0.3 76 -1 -1 очень
холодно
1027.1 1020.7 +4.9 2
21 11.06 С 4 20 км {ливн. осадки} 8/4 600 м
[Cb cap Ac trans Ci fib]
+2.9 -0.4 79 -2 -2 холодно 1027.1 1020.7
00 12.06 С 2 20 км {ливн. осадки} 9/8 600 м
[Sc Ac trans]
+3.0 -0.3 79 0 0 прохладно 1027.6 1021.2
03 12.06 СЗ 3 20 км в посл. час ливневой дождь 9/9 300 м
[Cb cap]
+3.7 -0.3 75 0 0 прохладно 1028.0 1021.6 +2.6 0.0
06 12.06 С 6-8
{10}
50 км осадки на расстоянии {ливн. осадки} 9/9 600 м
[Cb cap]
+4.9 -1.0 66 0 0 холодно 1028.5 1022.2 +2.6 0.0
09 12.06 СЗ 4-7
{10}
50 км 9/9 600 м
[Sc]
+8.2 -0.2 55 +5 +6 по сезону 1029.2 1022.9
12 12.06 С 6 50 км 8/8 600 м
[Cu hum]
+10.6 +0.1 48 +8 +9 по сезону 1028.9 1022.7
15 12.06 С 5 50 км 5/5 600 м
[Sc]
+10.3 +1.1 53 +8 +9 по сезону 1028.8 1022.6
18 12.06 СВ 4 50 км 9/0
[Ci fib]
+6.7 +1.4 69 +3 +4 прохладно 1029.4 1023.1 +11.4
21 12.06 В 2 50 км 10/0
[Ac lent Ci fib]
+4.7 +1.1 77 +2 +2 прохладно 1029.7 1023.4
00 13.06 ЮЗ 2 50 км 9/0
[Ac lent Ci fib]
+3.2 +1.4 88 0 0 прохладно 1029.8 1023.4
03 13.06 СВ 1 50 км 4/1 600 м
[Sc Ci fib]
+6.3 +1.1 69 +6 +8 по сезону 1029.2 1022.9 +3.1
06 13.06 С 1 20 км 8/1 600 м
[Sc Ci fib]
+9.7 +1.8 58 +10 +16 тепло 1028.3 1022.1 +3.1
09 13.06 С 1 20 км 9/4 600 м
[Cb cap Ac trans]
+11.9 +1.6 49 +12 +16 тепло 1027.3 1021.1
12 13.06 СВ 1 20 км {ливн. осадки} 10/10 600 м
[Cb cap]
+12.2 +2.0 50 +13 +13 тепло 1026.1 1019.9
15 13.06 С 1 20 км в посл. час ливневой дождь 10/10 600 м
[Cb cap]
+11.5 +3.8 59 +12 +12 тепло 1024.2 1018.0 0.0
18 13.06 С 6 20 км слаб. ливневой дождь 9/8 600 м
[Cb cap Ac cuf]
+8.3 +3.2 70 +4 +4 прохладно 1023.1 1016.9 +14.0 0.0
21 13.06 С 5 20 км осадки на расстоянии {ливн. осадки} 9/6 600 м
[Cb cap Ac As Ci sp]
+6.4 +3.3 81 +2 +2 прохладно 1022.0 1015.7
00 14.06 С 5 20 км {ливн. осадки} 9/8 600 м
[Cu med, cong Ac trans]
+5.3 +2.4 82 +1 +1 по сезону 1021.9 1015.6
03 14.06 С 4 20 км 9/9 300 м
[St Ac trans]
+4.4 +2.0 84 0 0 прохладно 1020.9 1014.6 +4.0 0.0
06 14.06 С 2 20 км 10/10 300 м
[St]
+5.3 +2.2 80 +3 +3 прохладно 1020.2 1013.9 +4.0 0.0
09 14.06 С 2 20 км 10/10 300 м
[St]
+8.4 +1.6 62 +7 +7 по сезону 1018.7 1012.5
12 14.06 С 5 20 км 9/8 300 м
[St Ac trans]
+9.6 +2.4 61 +7 +7 по сезону 1018.0 1011.8
15 14.06 С 5 20 км 10/10 1000 м
[Sc]
+7.8 +1.8 66 +4 +4 прохладно 1017.6 1011.4
18 14.06 С 5-8
{11}
20 км 10/10 600 м
[Cb cap]
+6.2 +1.9 74 +2 +2 холодно 1017.5 1011.3 +10.3
21 14.06 С 5-8
{11}
20 км 10/10 600 м
[Cb cap]
+5.7 +1.6 75 +1 +1 прохладно 1017.8 1011.5
00 15.06 С 3 20 км 10/10 600 м
[Cb cap]
+5.0 +1.5 78 +2 +2 по сезону 1017.9 1011.6
03 15.06 С 4 20 км 10/10 600 м
[Cb cap]
+5.6 +2.2 79 +2 +2 прохладно 1017.8 1011.5 +4.9
06 15.06 СЗ 3 50 км 9/9 600 м
[Cb cap]
+6.3 +1.8 73 +3 +4 прохладно 1017.3 1011.1 +4.9
09 15.06 СЗ 2 50 км 8/8 600 м
[Sc]
+10.5 +2.4 57 +9 +12 по сезону 1016.1 1010.0
12 15.06 С 2 50 км 3/1 600 м
[Cu hum Ac lent Cc]
+14.0 +3.4 49 +14 +21 тепло 1013.8 1007.8
15 15.06 З 5 50 км 9/0
[Ac trans]
+15.1 +2.3 42 +14 +15 тепло 1011.4 1005.4
18 15.06 СЗ 2 20 км 9/0
[Ac lent]
+15.7 +3.1 43 +16 +16 тепло 1009.2 1003.2 +16.6
21 15.06 З 3 20 км 4/0
[Ac lent Ci fib]
+13.3 +2.3 47 +12 +12 тепло 1008.1 1002.1
00 16.06 С 4-6
{10}
20 км 8/6 300 м
[St Ac trans]
+6.0 +3.5 84 +2 +2 по сезону 1009.7 1003.5
03 16.06 С 6-10
{13}
20 км 10/10 600 м
[Sc]
+6.9 +2.0 71 +3 +3 по сезону 1009.6 1003.4 +5.7
06 16.06 С 5-9
{12}
20 км 9/8 600 м
[Cu med, cong Ac lent Ci sp]
+7.2 +2.1 70 +3 +4 прохладно 1010.6 1004.4 +5.7
09 16.06 СЗ 3-5
{10}
20 км 9/9 600 м
[Cu med, cong Ac trans]
+9.5 +2.2 60 +8 +8 по сезону 1011.0 1004.9
12 16.06 СЗ 5-9
{10}
20 км 9/9 600 м
[Cu med, cong]
+12.2 +2.6 52 +10 +11 по сезону 1010.2 1004.1
15 16.06 С 7-12
{12}
20 км 4/4 600 м
[Cu hum]
+11.8 +3.0 55 +9 +10 по сезону 1010.1 1004.0

 

Местоположение метеостанции Мурманск (Мурманская область, Россия): широта 68.97 долгота 33.05 высота над уровнем моря 51 м.

В архиве по умолчанию представлена погода в Мурманске за последнюю неделю. Архивные данные за месяц целиком и за предыдущие месяцы, начиная с января 2011 года, Вы можете получить, выбрав интересующий диапазон дат из раскрывающегося списка и нажав кнопку "Ввод!".


*Определитесь, кто Вы:
робот инопланетянин человек

Внимание! Время в таблицах - всемирное. Для получения местного времени необходимо прибавить поправку, которая равна 3 ч.

Смотрите также архив погоды в соседних городах и на ближайших метеорологических станциях:

Погода в Североморске (Мурманская область, Россия) (20 км)
Погода в Полярном (Мурманская область, Россия) (31 км)
Погода в Ура-Губе (Мурманская область, Россия) (36 км)
Погода в Мурманске аэропорт (Мурманская область, Россия) (42 км)
Погода в Падуне (Мурманская область, Россия) (63 км)
Погода в Пулозере (Мурманская область, Россия) (70 км)
Погода в Перевале (Мурманская область, Россия) (70 км)
Погода в Цып-Наволоке (Мурманская область, Россия) (85 км)
Погода в Териберке (Мурманская область, Россия) (86 км)
Погода в Порту Лиинахамари (Мурманская область, Россия) (99 км)

Пояснения к столбцам:

Ветер - указаны скорость ветра в м/с - средняя за 10 мин, порывы в срок и между сроками (в фигурных скобках) и направление, откуда дует ветер: С - северный, СВ - северо-восточный, В - восточный, ЮВ - юго-восточный, Ю - южный, ЮЗ - юго-западный, З - западный, СЗ - северо-западный.
Видимость - горизонтальная дальность видимости в метрах или километрах. При видимости от 1 до 10 км при отсутствии осадков обычно наблюдается дымка, при ухудшении видимости до 1 км и менее - туман. В сухую погоду видимость может ухудшаться дымом, пылью или мглою.
Явления - указаны атмосферные явления, наблюдавшиеся в срок или в последний час перед сроком; фигурными скобками обозначены явления, наблюдавшиеся между сроками (за 1-3 часа до срока); квадратными скобками обозначены град или гололедные отложения с указанием их диаметра в мм.
Облачность - указаны через наклонную черту общая и нижняя облачность в баллах и высота нижней границы облаков в метрах; квадратными скобками обозначены формы облаков: Ci - перистые, Cs - перисто-слоистые, Cc - перисто-кучевые, Ac - высококучевые, As - высокослоистые, Sc - слоисто-кучевые, Ns - слоисто-дождевые, Cu - кучевые, Cb - кучево-дождевые. Подробнее классификацию облаков см. в Атласе облаков (PDF).
T - Температура воздуха - температура, измеренная на высоте 2 м над землей.
Td - Температура точки росы - температура, при понижении до которой содержащийся в воздухе водяной пар достигнет насыщения.
f - Относительная влажность воздуха - влажноcть воздуха, измеренная на высоте 2 м над землей.
Te - Эффективная температура - температура, которую ощущает одетый по сезону человек в тени. Характеристика душности погоды. При расчете учитывается влияние влажности воздуха и скорости ветра на теплоощущения человека.
Tes - Эффективная температура на солнце - температура, которую ощущает человек, с поправкой на солнечный нагрев. Характеристика знойности погоды. Зависит от высоты солнца над горизонтом, облачности и скорости ветра. Ночью, в пасмурную погоду, а также при ветре 12 м/с и более поправка равна нулю.
P - Атмосферное давление - приведенное к уровню моря атмосферное давление.
Po - Атмосферное давление - измеренное на уровне метеостанции атмосферное давление.
Tmin - Минимальная температура - минимум температуры воздуха на высоте 2 м над землей.
Tmax - Максимальная температура - максимум температуры воздуха на высоте 2 м над землей.
R - Количество осадков - Количество выпавших осадков за период времени, мм. При наведении курсора мыши на число - период времени, за который выпало указанное количество осадков.
R24 - Количество осадков - Количество выпавших осадков за 24 часа, мм.
S - Снежный покров - Высота снежного покрова, см. При наведении курсора мыши на число - состояние снежного покрова и степень покрытия местности в баллах.